Oxford, MS

1:30 AM CDT on May 26, 2017 (GMT -0500)
University-Oxford

Weather History for KUOX - January, 2014

Change the Weather History Date:

Thursday, January 9, 2014

  Actual Average Record
Temperature  
Mean Temperature 39 °F -  
Max Temperature 46 °F 44 °F 78 °F (1949)
Min Temperature 32 °F 25 °F 1 °F (1970)
Degree Days  
Heating Degree Days 26    
Moisture  
Dew Point 26 °F    
Average Humidity 66    
Maximum Humidity 93    
Minimum Humidity 33    
Precipitation  
Precipitation 0.07 in - - ()
Sea Level Pressure  
Sea Level Pressure 30.33 in    
Wind  
Wind Speed 1 mph (SE)    
Max Wind Speed 7 mph    
Max Gust Speed -    
Visibility 9 miles    
Events Rain    
Averages and records for this station are not official NWS values.
T = Trace of Precipitation, MM = Missing Value Source: NWS Daily Summary

Daily Weather History Graph

Daily Weather History Graph

Search for Another Location

Airport or City:

Trip Planner

Search our weather history database for the weather conditions in past years. The results will help you decide how hot, cold, wet, or windy it might be!

Date:

Astronomy

Jan. 09, 2014 Rise Set
Actual Time 7:05 AM CST 5:05 PM CST
Civil Twilight 6:37 AM CST 5:33 PM CST
Nautical Twilight 6:06 AM CST 6:04 PM CST
Astronomical Twilight 5:36 AM CST 6:34 PM CST
Moon 12:27 PM CST (1/9) 1:19 AM CST (1/9)
Length of Visible Light 10h 55m
Length of Day
10h 00m
Waxing Gibbous, 66% of the Moon is Illuminated
Jan 9
Waxing Gibbous
Jan 15
Full
Jan 23
Last Quarter
Jan 30
New
Feb 6
First Quarter

Hourly Weather History & Observations

Time (CST) Temp. Windchill Dew Point Humidity Pressure Visibility Wind Dir Wind Speed Gust Speed Precip Events Conditions
12:15 AM 35.6 °F - 8.6 °F 33% 30.41 in 10.0 mi Calm Calm - N/A   Mostly Cloudy
12:35 AM 35.6 °F - 8.6 °F 33% 30.40 in 10.0 mi Calm Calm - N/A   Overcast
12:55 AM 35.6 °F - 8.6 °F 33% 30.40 in 10.0 mi Calm Calm - N/A   Overcast
1:15 AM 35.6 °F - 10.4 °F 35% 30.40 in 10.0 mi Calm Calm - N/A   Overcast
1:35 AM 35.6 °F - 8.6 °F 33% 30.40 in 10.0 mi Calm Calm - N/A   Overcast
1:55 AM 35.6 °F - 8.6 °F 33% 30.40 in 10.0 mi Calm Calm - N/A   Mostly Cloudy
2:15 AM 35.6 °F - 8.6 °F 33% 30.41 in 10.0 mi Calm Calm - N/A   Mostly Cloudy
2:35 AM 35.6 °F - 8.6 °F 33% 30.40 in 10.0 mi Calm Calm - N/A   Overcast
2:55 AM 35.6 °F - 10.4 °F 35% 30.40 in 10.0 mi Calm Calm - N/A   Mostly Cloudy
3:15 AM 35.6 °F - 8.6 °F 33% 30.41 in 10.0 mi Calm Calm - N/A   Mostly Cloudy
3:35 AM 35.6 °F - 8.6 °F 33% 30.41 in 10.0 mi Calm Calm - N/A   Mostly Cloudy
3:55 AM 35.6 °F 32.8 °F 10.4 °F 35% 30.40 in 10.0 mi ESE 3.5 mph - N/A   Mostly Cloudy
4:15 AM 35.6 °F - 10.4 °F 35% 30.40 in 10.0 mi Calm Calm - N/A   Scattered Clouds
4:35 AM 35.6 °F - 14.0 °F 41% 30.39 in 10.0 mi Calm Calm - N/A Rain Light Rain
4:55 AM 32.0 °F - 17.6 °F 55% 30.40 in 10.0 mi Calm Calm - N/A   Partly Cloudy
5:15 AM 32.0 °F - 17.6 °F 55% 30.40 in 10.0 mi Calm Calm - N/A   Scattered Clouds
5:35 AM 32.0 °F - 19.4 °F 60% 30.40 in 10.0 mi Calm Calm - N/A   Scattered Clouds
5:55 AM 32.0 °F 28.7 °F 19.4 °F 60% 30.39 in 9.0 mi SE 3.5 mph - N/A Rain Light Rain
6:15 AM 32.0 °F - 19.4 °F 60% 30.39 in 10.0 mi Calm Calm - N/A   Partly Cloudy
6:35 AM 32.0 °F 28.7 °F 17.6 °F 55% 30.39 in 10.0 mi SE 3.5 mph - N/A Rain Light Rain
6:55 AM 32.0 °F 28.7 °F 23.0 °F 69% 30.40 in 7.0 mi SSE 3.5 mph - N/A Rain Light Rain
7:15 AM 32.0 °F - 24.8 °F 75% 30.40 in 6.0 mi Calm Calm - N/A Rain Light Rain
7:35 AM 32.0 °F 28.7 °F 24.8 °F 75% 30.40 in 5.0 mi SE 3.5 mph - 0.01 in Rain Light Rain
7:55 AM 32.0 °F - 26.6 °F 80% 30.40 in 3.0 mi Calm Calm - 0.02 in Rain Light Rain
8:15 AM 32.0 °F 27.5 °F 26.6 °F 80% 30.39 in 4.0 mi SE 4.6 mph - 0.01 in Rain Light Rain
8:35 AM 32.0 °F 28.7 °F 26.6 °F 80% 30.39 in 3.0 mi SE 3.5 mph - 0.04 in Rain Light Rain
8:55 AM 32.0 °F - 28.4 °F 87% 30.39 in 9.0 mi Calm Calm - 0.05 in   Scattered Clouds
9:15 AM 32.0 °F 28.7 °F 28.4 °F 87% 30.40 in 8.0 mi East 3.5 mph - N/A Rain Light Rain
9:35 AM 32.0 °F 28.7 °F 28.4 °F 87% 30.41 in 10.0 mi ENE 3.5 mph - N/A   Mostly Cloudy
9:55 AM 32.0 °F - 28.4 °F 87% 30.41 in 10.0 mi Calm Calm - N/A   Mostly Cloudy
10:15 AM 32.0 °F - 28.4 °F 87% 30.42 in 7.0 mi Calm Calm - N/A Rain Light Rain
10:35 AM 32.0 °F 28.7 °F 30.2 °F 93% 30.41 in 9.0 mi NE 3.5 mph - N/A Rain Light Rain
10:55 AM 32.0 °F 27.5 °F 30.2 °F 93% 30.40 in 10.0 mi ENE 4.6 mph - N/A Rain Light Rain
11:15 AM 33.8 °F 30.8 °F 30.2 °F 87% 30.40 in 10.0 mi NNE 3.5 mph - N/A Rain Light Rain
11:35 AM 33.8 °F 30.8 °F 30.2 °F 87% 30.38 in 9.0 mi ENE 3.5 mph - N/A Rain Light Rain
11:55 AM 33.8 °F 28.6 °F 32.0 °F 93% 30.35 in 5.0 mi East 5.8 mph - N/A Rain Light Rain
12:15 PM 33.8 °F 30.8 °F 32.0 °F 93% 30.32 in 5.0 mi East 3.5 mph - N/A Rain Light Rain
12:35 PM 35.6 °F 32.8 °F 32.0 °F 87% 30.29 in 10.0 mi ESE 3.5 mph - N/A Rain Light Rain
12:55 PM 35.6 °F 29.9 °F 32.0 °F 87% 30.28 in 10.0 mi SE 6.9 mph - N/A   Partly Cloudy
1:15 PM 37.4 °F 34.9 °F 32.0 °F 81% 30.28 in 10.0 mi SE 3.5 mph - N/A Rain Light Rain
1:35 PM 37.4 °F 33.8 °F 32.0 °F 81% 30.28 in 10.0 mi ESE 4.6 mph - N/A Rain Light Rain
1:55 PM 37.4 °F - 32.0 °F 81% 30.28 in 8.0 mi Calm Calm - N/A Rain Light Rain
2:15 PM 37.4 °F - 33.8 °F 87% 30.28 in 8.0 mi Calm Calm - N/A Rain Light Rain
2:35 PM 39.2 °F - 33.8 °F 81% 30.27 in 10.0 mi Calm Calm - N/A   Partly Cloudy
2:55 PM 39.2 °F 37.0 °F 33.8 °F 81% 30.27 in 10.0 mi SE 3.5 mph - N/A   Clear
3:15 PM 39.2 °F - 33.8 °F 81% 30.27 in 10.0 mi Calm Calm - N/A   Partly Cloudy
3:35 PM 39.2 °F 37.0 °F 32.0 °F 75% 30.27 in 10.0 mi ESE 3.5 mph - N/A Rain Light Rain
3:55 PM 41.0 °F 39.0 °F 32.0 °F 70% 30.27 in 9.0 mi ESE 3.5 mph - N/A Rain Light Rain
4:15 PM 41.0 °F - 32.0 °F 70% 30.27 in 10.0 mi Calm Calm - N/A   Scattered Clouds
5:15 PM 41.0 °F 39.0 °F 32.0 °F 70% 30.26 in 10.0 mi ESE 3.5 mph - N/A Rain Light Rain
5:35 PM 41.0 °F 39.0 °F 32.0 °F 70% 30.26 in 10.0 mi SE 3.5 mph - N/A Rain Light Rain
5:55 PM 41.0 °F - 32.0 °F 70% 30.25 in 10.0 mi Calm Calm - N/A Rain Light Rain
6:15 PM 41.0 °F - 32.0 °F 70% 30.25 in 10.0 mi Calm Calm - N/A   Scattered Clouds
6:35 PM 41.0 °F - 30.2 °F 65% 30.25 in 10.0 mi Calm Calm - N/A   Clear
6:55 PM 42.8 °F 41.1 °F 32.0 °F 66% 30.26 in 10.0 mi SE 3.5 mph - N/A   Clear
7:15 PM 42.8 °F 41.1 °F 32.0 °F 66% 30.25 in 10.0 mi SE 3.5 mph - N/A   Partly Cloudy
7:35 PM 44.6 °F 43.1 °F 32.0 °F 61% 30.25 in 10.0 mi SSE 3.5 mph - N/A   Scattered Clouds
7:55 PM 44.6 °F 43.1 °F 32.0 °F 61% 30.26 in 10.0 mi SSE 3.5 mph - N/A   Mostly Cloudy
8:15 PM 44.6 °F 43.1 °F 32.0 °F 61% 30.25 in 10.0 mi SSE 3.5 mph - N/A   Scattered Clouds
8:35 PM 44.6 °F 43.1 °F 32.0 °F 61% 30.25 in 10.0 mi SSE 3.5 mph - N/A   Mostly Cloudy
8:55 PM 46.4 °F 45.2 °F 32.0 °F 57% 30.24 in 10.0 mi SE 3.5 mph - N/A   Mostly Cloudy
9:15 PM 46.4 °F 45.2 °F 32.0 °F 57% 30.24 in 10.0 mi SSE 3.5 mph - N/A   Mostly Cloudy
9:35 PM 46.4 °F 44.3 °F 33.8 °F 62% 30.24 in 10.0 mi SSE 4.6 mph - N/A   Mostly Cloudy
9:55 PM 46.4 °F 44.3 °F 35.6 °F 66% 30.24 in 10.0 mi SSE 4.6 mph - N/A   Scattered Clouds
10:15 PM 46.4 °F 45.2 °F 35.6 °F 66% 30.24 in 10.0 mi SSE 3.5 mph - N/A   Scattered Clouds
10:35 PM 46.4 °F 45.2 °F 35.6 °F 66% 30.24 in 10.0 mi SSE 3.5 mph - N/A   Mostly Cloudy
10:55 PM 46.4 °F 45.2 °F 35.6 °F 66% 30.23 in 10.0 mi South 3.5 mph - N/A   Scattered Clouds
11:15 PM 46.4 °F 45.2 °F 37.4 °F 71% 30.22 in 10.0 mi SSE 3.5 mph - N/A   Partly Cloudy
11:35 PM 46.4 °F 44.3 °F 37.4 °F 71% 30.22 in 10.0 mi South 4.6 mph - N/A   Mostly Cloudy
11:55 PM 46.4 °F 43.5 °F 37.4 °F 71% 30.21 in 10.0 mi South 5.8 mph - N/A   Overcast